Pampa, TX

8:50 PM CDT on October 22, 2017 (GMT -0500)
Perry Lefors

Weather History for KPPA - March, 2013

Change the Weather History Date:

Sunday, March 3, 2013

  Actual Average Record
Temperature  
Mean Temperature 54 °F -  
Max Temperature 73 °F 58 °F 82 °F (1974)
Min Temperature 35 °F 29 °F -1 °F (2014)
Degree Days  
Heating Degree Days 11    
Growing Degree Days 4 (Base 50)    
Moisture  
Dew Point 29 °F    
Average Humidity 44    
Maximum Humidity 81    
Minimum Humidity 15    
Precipitation  
Precipitation 0.00 in - - ()
Sea Level Pressure  
Sea Level Pressure 29.83 in    
Wind  
Wind Speed 14 mph (SW)    
Max Wind Speed 32 mph    
Max Gust Speed 38 mph    
Visibility 10 miles    
Events      
Averages and records for this station are not official NWS values.
T = Trace of Precipitation, MM = Missing Value Source: NWS Daily Summary

Daily Weather History Graph

Daily Weather History Graph

Search for Another Location

Airport or City:

Trip Planner

Search our weather history database for the weather conditions in past years. The results will help you decide how hot, cold, wet, or windy it might be!

Date:

Astronomy

Mar. 03, 2013 Rise Set
Actual Time 7:10 AM CST 6:41 PM CST
Civil Twilight 6:45 AM CST 7:06 PM CST
Nautical Twilight 6:15 AM CST 7:36 PM CST
Astronomical Twilight 5:46 AM CST 8:06 PM CST
Moon 12:08 AM CST (3/3) 10:41 AM CST (3/3)
Length of Visible Light 12h 21m
Length of Day
11h 30m
Waning Gibbous, 63% of the Moon is Illuminated
Mar 3
Waning Gibbous
Mar 4
Last Quarter
Mar 11
New
Mar 19
First Quarter
Mar 27
Full

Hourly Weather History & Observations

Time (CST) Temp. Windchill Dew Point Humidity Pressure Visibility Wind Dir Wind Speed Gust Speed Precip Events Conditions
12:15 AM 37.4 °F 30.3 °F 30.2 °F 75% 30.14 in 10.0 mi South 10.4 mph - N/A   Clear
12:35 AM 35.6 °F 28.0 °F 30.2 °F 81% 30.12 in 10.0 mi SSW 10.4 mph - N/A   Clear
12:55 AM 35.6 °F 28.0 °F 30.2 °F 81% 30.12 in 10.0 mi SSW 10.4 mph - N/A   Clear
1:15 AM 35.6 °F 27.1 °F 30.2 °F 81% 30.12 in 10.0 mi South 12.7 mph - N/A   Clear
1:35 AM 37.4 °F 29.8 °F 30.2 °F 75% 30.11 in 10.0 mi SSW 11.5 mph - N/A   Clear
1:55 AM 35.6 °F 27.5 °F 30.2 °F 81% 30.12 in 10.0 mi SSW 11.5 mph - N/A   Clear
2:15 AM 35.6 °F 28.0 °F 30.2 °F 81% 30.10 in 10.0 mi SSW 10.4 mph - N/A   Clear
2:35 AM 37.4 °F 30.3 °F 30.2 °F 75% 30.09 in 10.0 mi SSW 10.4 mph - N/A   Clear
2:55 AM 35.6 °F 28.6 °F 30.2 °F 81% 30.08 in 10.0 mi SSW 9.2 mph - N/A   Clear
3:15 AM 35.6 °F 28.6 °F 28.4 °F 75% 30.07 in 10.0 mi SSW 9.2 mph - N/A   Clear
3:35 AM 35.6 °F 28.6 °F 28.4 °F 75% 30.05 in 10.0 mi SSW 9.2 mph - N/A   Clear
3:55 AM 41.0 °F 33.9 °F 28.4 °F 61% 30.04 in 10.0 mi SW 12.7 mph - N/A   Clear
4:15 AM 41.0 °F 33.9 °F 26.6 °F 57% 30.03 in 10.0 mi SW 12.7 mph - N/A   Clear
4:35 AM 41.0 °F 32.5 °F 26.6 °F 57% 30.02 in 10.0 mi SW 17.3 mph - N/A   Clear
4:55 AM 39.2 °F 31.2 °F 26.6 °F 61% 30.03 in 10.0 mi SW 13.8 mph - N/A   Clear
5:15 AM 39.2 °F 31.2 °F 26.6 °F 61% 30.01 in 10.0 mi SW 13.8 mph - N/A   Clear
5:35 AM 37.4 °F 28.9 °F 26.6 °F 65% 30.01 in 10.0 mi SW 13.8 mph - N/A   Clear
5:55 AM 39.2 °F 30.8 °F 26.6 °F 61% 30.00 in 10.0 mi SW 15.0 mph - N/A   Clear
6:15 AM 41.0 °F 32.8 °F 26.6 °F 57% 30.00 in 10.0 mi SW 16.1 mph - N/A   Clear
6:35 AM 41.0 °F 32.8 °F 24.8 °F 53% 29.99 in 10.0 mi SW 16.1 mph - N/A   Clear
6:55 AM 41.0 °F 32.8 °F 24.8 °F 53% 29.98 in 10.0 mi SW 16.1 mph 23.0 mph N/A   Clear
7:15 AM 41.0 °F 33.9 °F 24.8 °F 53% 29.97 in 10.0 mi SW 12.7 mph - N/A   Clear
7:35 AM 42.8 °F 34.8 °F 24.8 °F 49% 29.96 in 10.0 mi SW 17.3 mph - N/A   Clear
7:55 AM 42.8 °F 34.3 °F 24.8 °F 49% 29.95 in 10.0 mi SW 19.6 mph 24.2 mph N/A   Clear
8:15 AM 42.8 °F 34.8 °F 26.6 °F 53% 29.94 in 10.0 mi SSW 17.3 mph 25.3 mph N/A   Clear
8:35 AM 44.6 °F 37.8 °F 26.6 °F 49% 29.95 in 10.0 mi SW 15.0 mph 24.2 mph N/A   Clear
8:55 AM 46.4 °F 40.4 °F 26.6 °F 46% 29.94 in 10.0 mi SW 13.8 mph - N/A   Clear
9:35 AM 51.8 °F - 28.4 °F 41% 29.93 in 10.0 mi SW 13.8 mph - N/A   Clear
9:55 AM 51.8 °F - 30.2 °F 44% 29.91 in 10.0 mi SW 16.1 mph - N/A   Clear
10:15 AM 53.6 °F - 30.2 °F 41% 29.90 in 10.0 mi SW 16.1 mph - N/A   Clear
10:35 AM 55.4 °F - 30.2 °F 38% 29.89 in 10.0 mi SW 17.3 mph - N/A   Clear
10:55 AM 55.4 °F - 30.2 °F 38% 29.87 in 10.0 mi WSW 13.8 mph - N/A   Clear
11:35 AM 60.8 °F - 32.0 °F 34% 29.85 in 10.0 mi SW 15.0 mph 19.6 mph N/A   Clear
11:55 AM 62.6 °F - 32.0 °F 32% 29.84 in 10.0 mi WSW 15.0 mph - N/A   Clear
12:15 PM 60.8 °F - 32.0 °F 34% 29.83 in 10.0 mi SW 15.0 mph - N/A   Clear
12:35 PM 62.6 °F - 32.0 °F 32% 29.82 in 10.0 mi SW 15.0 mph 20.7 mph N/A   Clear
12:55 PM 64.4 °F - 32.0 °F 30% 29.80 in 10.0 mi SW 16.1 mph - N/A   Clear
1:15 PM 64.4 °F - 32.0 °F 30% 29.79 in 10.0 mi SW 13.8 mph - N/A   Clear
1:35 PM 68.0 °F - 33.8 °F 28% 29.76 in 10.0 mi WSW 18.4 mph 26.5 mph N/A   Clear
1:55 PM 69.8 °F - 33.8 °F 27% 29.75 in 10.0 mi WSW 23.0 mph 26.5 mph N/A   Clear
2:15 PM 66.2 °F - 35.6 °F 32% 29.73 in 10.0 mi WSW 13.8 mph - N/A   Clear
2:35 PM 68.0 °F - 35.6 °F 30% 29.72 in 10.0 mi WSW 16.1 mph - N/A   Clear
2:55 PM 71.6 °F - 33.8 °F 25% 29.71 in 10.0 mi WSW 16.1 mph 21.9 mph N/A   Clear
3:15 PM 73.4 °F - 28.4 °F 19% 29.70 in 10.0 mi WSW 21.9 mph 26.5 mph N/A   Clear
3:35 PM 73.4 °F - 23.0 °F 15% 29.69 in 10.0 mi West 32.2 mph 38.0 mph N/A   Clear
3:55 PM 71.6 °F - 26.6 °F 19% 29.69 in 10.0 mi West 27.6 mph 33.4 mph N/A   Clear
4:15 PM 69.8 °F - 28.4 °F 21% 29.69 in 10.0 mi West 23.0 mph 29.9 mph N/A   Clear
4:35 PM 68.0 °F - 30.2 °F 24% 29.68 in 10.0 mi WSW 16.1 mph - N/A   Clear
4:55 PM 68.0 °F - 30.2 °F 24% 29.67 in 10.0 mi WSW 16.1 mph - N/A   Clear
5:15 PM 66.2 °F - 30.2 °F 26% 29.66 in 10.0 mi WSW 12.7 mph - N/A   Clear
5:35 PM 66.2 °F - 32.0 °F 28% 29.65 in 10.0 mi WSW 9.2 mph - N/A   Clear
5:55 PM 64.4 °F - 32.0 °F 30% 29.65 in 10.0 mi SW 8.1 mph - N/A   Clear
6:15 PM 60.8 °F - 32.0 °F 34% 29.65 in 10.0 mi SW 6.9 mph - N/A   Clear
6:35 PM 59.0 °F - 32.0 °F 36% 29.64 in 10.0 mi SW 5.8 mph - N/A   Clear
6:55 PM 55.4 °F - 32.0 °F 41% 29.63 in 10.0 mi South 6.9 mph - N/A   Clear
7:15 PM 55.4 °F - 32.0 °F 41% 29.63 in 10.0 mi South 8.1 mph - N/A   Clear
7:35 PM 55.4 °F - 32.0 °F 41% 29.62 in 10.0 mi SW 12.7 mph - N/A   Clear
7:55 PM 59.0 °F - 28.4 °F 31% 29.62 in 10.0 mi SW 13.8 mph - N/A   Clear
8:15 PM 57.2 °F - 28.4 °F 33% 29.62 in 10.0 mi SW 13.8 mph - N/A   Clear
8:35 PM 59.0 °F - 26.6 °F 29% 29.61 in 10.0 mi WSW 16.1 mph - N/A   Clear
8:55 PM 57.2 °F - 26.6 °F 31% 29.61 in 10.0 mi WSW 17.3 mph - N/A   Clear
9:15 PM 59.0 °F - 24.8 °F 27% 29.60 in 10.0 mi WSW 19.6 mph - N/A   Clear
9:35 PM 59.0 °F - 24.8 °F 27% 29.60 in 10.0 mi WSW 18.4 mph - N/A   Clear
9:55 PM 57.2 °F - 26.6 °F 31% 29.60 in 10.0 mi WSW 19.6 mph - N/A   Clear
10:15 PM 55.4 °F - 26.6 °F 33% 29.61 in 10.0 mi WSW 15.0 mph - N/A   Clear
10:35 PM 53.6 °F - 26.6 °F 35% 29.61 in 10.0 mi West 15.0 mph - N/A   Clear
10:55 PM 51.8 °F - 26.6 °F 38% 29.61 in 10.0 mi WSW 15.0 mph - N/A   Clear
11:15 PM 53.6 °F - 26.6 °F 35% 29.62 in 10.0 mi West 16.1 mph - N/A   Clear
11:35 PM 53.6 °F - 24.8 °F 33% 29.61 in 10.0 mi WSW 13.8 mph - N/A   Clear
11:55 PM 53.6 °F - 23.0 °F 30% 29.60 in 10.0 mi West 15.0 mph - N/A   Clear